Weather observations for the past three days for
Charles City
Imperial (Metric)
Date Time (cdt) Wind (mph) Vis. (mi.) Weather Sky Cond. Temperature (ºF) Relative Humidity Wind Chill (°F) Heat Index (°F) Pressure Precipitation (in)
Air Dwpt 6 hour altimeter (in) sea level (mb) 1 hr 3 hr 6 hr
Max. Min.
19 12:15 N 14 10.00 Overcast SCT020 OVC035 68 68 100% 30.24 0.0
19 11:55 N 12 10.00 Overcast SCT018 OVC035 66.2 66.2 100% 30.24 0.0
19 11:35 NW 12 10.00 Overcast OVC017 66.2 66.2 100% 30.23 0.0
19 11:15 NW 12 G 17 10.00 Overcast BKN017 OVC032 66.2 66.2 100% 30.23 0.0
19 10:55 N 12 10.00 Overcast SCT017 OVC033 66.2 66.2 100% 30.22 0.0
19 10:35 N 14 10.00 Overcast SCT015 OVC032 64.4 64.4 100% 30.21 0.0
19 10:15 N 10 10.00 Overcast SCT015 OVC032 64.4 64.4 100% 30.2 0.0
19 09:55 N 9 G 18 10.00 Overcast OVC030 64.4 62.6 94% 30.2 0.0
19 09:35 N 14 10.00 Overcast OVC028 62.6 62.6 100% 30.18 0.0
19 09:15 NW 13 10.00 Overcast OVC027 62.6 62.6 100% 30.17 0.0
19 08:55 N 10 10.00 Overcast BKN010 BKN021 OVC026 62.6 62.6 100% 30.16 0.0
19 08:35 N 10 10.00 Overcast OVC009 64.4 62.6 94% 30.16 0.0
19 08:15 N 12 10.00 Overcast BKN007 OVC011 64.4 64.4 100% 30.15 0.0
19 07:55 NW 10 10.00 Overcast SCT009 OVC019 64.4 64.4 100% 30.15 0.0
19 07:35 NW 10 10.00 Overcast SCT007 OVC018 64.4 64.4 100% 30.14 0.0
19 07:15 NW 10 G 16 10.00 Overcast SCT006 BKN010 OVC022 64.4 64.4 100% 30.13 0.0
19 06:55 NW 7 5.00 Light Rain FEW005 BKN014 OVC022 64.4 64.4 100% 30.12 0.0 0.02
19 06:35 NW 8 5.00 Light Rain OVC012 64.4 64.4 100% 30.11 0.0
19 06:15 NW 9 7.00 Light Rain OVC010 64.4 64.4 100% 30.11 0.0
19 05:55 N 9 5.00 Light Rain OVC006 64.4 64.4 100% 30.09 0.0 0.11
19 05:35 Calm 3.00 Rain SCT004 BKN012 OVC019 68 68 100% 30.09 0.0
19 05:15 Calm 4.00 Rain SCT004 SCT012 OVC020 68 68 100% 30.08 0.0
19 04:55 W 5 5.00 Light Rain FEW004 OVC022 68 68 100% 30.07 0.0 0.03
19 04:35 SE 5 6.00 Light Rain BKN024 BKN031 OVC070 68 68 100% 30.05 0.0
19 04:15 Calm 5.00 Light Rain BKN038 BKN060 BKN095 68 68 100% 30.05 0.0
19 03:55 SW 5 5.00 Light Rain BKN007 BKN039 OVC080 68 68 100% 30.04 0.0 0.07
19 03:35 S 7 4.00 Rain BKN005 OVC010 68 68 100% 30.04 0.0
19 03:15 SW 3 5.00 Light Rain BKN006 OVC030 68 68 100% 30.04 0.0
19 02:55 SW 9 7.00 Light Drizzle BKN007 OVC043 68 68 100% 30.04 0.0
19 02:35 SW 6 8.00 Light Rain BKN007 OVC043 68 68 100% 30.02 0.0
19 02:15 W 7 10.00 Overcast BKN006 OVC043 68 68 100% 30.01 0.0
19 01:55 W 6 10.00 Mostly Cloudy BKN006 BKN049 BKN065 68 68 100% 30 0.0 0.08
19 01:35 SW 9 G 18 7.00 Light Rain SCT043 BKN065 OVC075 68 68 100% 30 0.0
19 01:15 SW 13 5.00 Light Rain FEW006 BKN040 OVC060 68 68 100% 30 0.0
19 00:55 S 15 4.00 Rain SCT006 BKN038 OVC047 68 68 100% 29.99 0.0 0.13
19 00:35 SW 14 G 21 5.00 Rain FEW004 SCT035 OVC047 68 68 100% 29.99 0.0
19 00:15 SW 17 G 26 6.00 Light Rain SCT039 BKN060 OVC120 68 68 100% 29.99 0.0
18 23:55 SW 15 7.00 Light Rain FEW044 BKN060 OVC090 68 68 100% 29.96 0.0 0.04
18 23:35 SW 9 8.00 Light Rain FEW040 SCT060 BKN090 69.8 68 94% 29.95 0.0
18 23:15 SW 6 9.00 Light Rain FEW060 SCT070 BKN085 69.8 68 94% 29.93 0.0
18 22:55 Vrbl 6 10.00 Overcast SCT047 BKN075 OVC120 69.8 68 94% 29.92 0.0 0.1
18 22:35 W 14 G 26 6.00 Light Rain FEW006 BKN037 OVC075 68 68 100% 29.91 0.0
18 22:15 W 24 G 44 3.00 Light Rain and Breezy FEW008 BKN036 OVC041 69.8 69.8 100% 29.94 0.0
18 21:55 W 31 G 44 9.00 Overcast and Windy SCT035 BKN048 OVC055 77 73.4 89% 78 29.9 0.0
18 21:35 S 22 G 28 10.00 Overcast and Breezy BKN055 BKN065 OVC080 82.4 75.2 79% 89 29.84 0.0
18 20:55 S 21 10.00 Overcast and Breezy SCT049 OVC055 82.4 77 84% 91 29.83 0.0
18 20:35 S 17 G 24 10.00 Overcast OVC060 82.4 77 84% 91 29.83 0.0
18 20:15 S 15 10.00 Overcast OVC060 82.4 78.8 89% 92 29.82 0.0
18 19:55 S 15 10.00 Overcast BKN060 OVC070 82.4 78.8 89% 92 29.82 0.0
18 19:35 S 18 G 29 10.00 Mostly Cloudy FEW047 SCT055 BKN065 84.2 77 79% 94 29.81 0.0
18 19:15 S 18 G 24 10.00 Mostly Cloudy SCT050 BKN060 BKN090 84.2 77 79% 94 29.81 0.0
18 18:55 S 15 G 23 10.00 Mostly Cloudy SCT050 BKN060 BKN090 84.2 78.8 84% 96 29.81 0.0
18 18:35 S 15 9.00 Mostly Cloudy FEW035 SCT049 BKN055 84.2 78.8 84% 96 29.81 0.0
18 18:15 S 17 G 24 10.00 Overcast OVC055 84.2 77 79% 94 29.8 0.0
18 17:55 S 17 G 29 10.00 Overcast OVC055 84.2 77 79% 94 29.79 0.0
18 17:35 S 21 G 32 10.00 Overcast and Breezy OVC060 86 77 75% 97 29.78 0.0
18 17:15 S 22 G 33 10.00 Mostly Cloudy and Breezy BKN055 86 77 75% 97 29.78 0.0
18 16:55 S 23 G 30 10.00 Overcast and Breezy OVC055 87.8 77 70% 100 29.77 0.0
18 16:35 S 22 G 33 10.00 Overcast and Breezy FEW042 OVC050 86 77 75% 97 29.78 0.0
18 16:15 S 23 G 31 10.00 Overcast and Breezy BKN041 BKN049 OVC055 86 77 75% 97 29.78 0.0
18 15:55 S 22 G 32 10.00 Overcast and Breezy OVC041 86 77 75% 97 29.79 0.0
18 15:35 S 21 G 28 10.00 Overcast and Breezy BKN039 OVC045 84.2 77 79% 94 29.79 0.0
18 15:15 S 24 G 30 10.00 Overcast and Breezy OVC039 84.2 77 79% 94 29.79 0.0
18 14:55 S 17 G 26 10.00 Overcast BKN040 OVC045 84.2 77 79% 94 29.79 0.0
18 14:35 S 21 10.00 Overcast and Breezy BKN037 OVC043 84.2 78.8 84% 96 29.78 0.0
18 14:15 S 20 10.00 Overcast OVC037 82.4 78.8 89% 92 29.79 0.0
18 13:55 S 17 G 26 10.00 Overcast OVC037 84.2 78.8 84% 96 29.8 0.0
18 13:35 S 20 G 26 10.00 Overcast BKN037 OVC044 84.2 78.8 84% 96 29.8 0.0
18 13:15 S 22 G 30 10.00 Overcast and Breezy FEW033 OVC046 84.2 77 79% 94 29.8 0.0
18 12:55 S 23 G 32 10.00 Overcast and Breezy SCT033 BKN041 OVC048 82.4 78.8 89% 92 29.8 0.0
18 12:35 S 24 G 32 10.00 Mostly Cloudy and Breezy SCT032 SCT038 BKN047 84.2 78.8 84% 96 29.79 0.0
18 12:15 S 22 G 30 10.00 Mostly Cloudy and Breezy BKN032 BKN041 BKN047 84.2 78.8 84% 96 29.78 0.0
18 11:55 S 20 G 29 10.00 Mostly Cloudy BKN032 BKN042 82.4 78.8 89% 92 29.79 0.0
18 11:35 S 28 G 33 10.00 Mostly Cloudy and Windy BKN030 BKN034 BKN041 84.2 77 79% 94 29.78 0.0
18 11:15 S 21 G 31 10.00 Mostly Cloudy and Breezy BKN029 84.2 78.8 84% 96 29.77 0.0
18 10:55 S 26 G 36 10.00 Mostly Cloudy and Windy BKN027 BKN033 84.2 78.8 84% 96 29.77 0.0
18 10:35 S 23 G 31 10.00 Overcast and Breezy BKN026 OVC033 82.4 80.6 94% 94 29.77 0.0
18 10:15 S 24 G 32 10.00 Mostly Cloudy and Breezy BKN025 82.4 80.6 94% 94 29.77 0.0
18 09:55 S 28 10.00 Partly Cloudy and Windy SCT022 82.4 80.6 94% 94 29.77 0.0
18 09:35 S 26 G 32 10.00 Partly Cloudy and Windy SCT021 SCT027 80.6 80.6 100% 89 29.77 0.0
18 08:55 S 23 G 30 10.00 Mostly Cloudy and Breezy BKN020 80.6 78.8 94% 88 29.79 0.0
18 08:35 S 21 G 28 10.00 Mostly Cloudy and Breezy BKN019 78.8 78.8 100% 83 29.79 0.0
18 08:15 S 24 G 32 10.00 Mostly Cloudy and Breezy BKN018 78.8 78.8 100% 83 29.79 0.0
18 07:55 S 22 G 32 10.00 Mostly Cloudy and Breezy BKN016 BKN021 77 77 100% 78 29.79 0.0
18 07:35 S 20 G 30 10.00 Mostly Cloudy BKN016 BKN022 77 77 100% 78 29.79 0.0
18 07:15 S 21 10.00 A Few Clouds and Breezy FEW014 FEW020 77 75.2 94% 78 29.78 0.0
18 06:55 S 21 G 26 10.00 Fair and Breezy CLR 75.2 75.2 100% 73 29.78 0.0
18 06:35 S 21 10.00 Fair and Breezy CLR 75.2 75.2 100% 73 29.78 0.0
18 06:15 S 17 G 24 10.00 Fair CLR 75.2 75.2 100% 73 29.78 0.0
18 05:55 S 18 G 25 10.00 Fair CLR 75.2 75.2 100% 73 29.77 0.0
18 05:35 S 16 G 23 10.00 A Few Clouds FEW021 75.2 75.2 100% 73 29.77 0.0
18 05:15 S 16 10.00 Fair CLR 75.2 75.2 100% 73 29.76 0.0
18 04:55 S 20 G 26 10.00 Fair CLR 75.2 75.2 100% 73 29.75 0.0
18 04:35 S 17 G 23 10.00 Fair CLR 75.2 75.2 100% 73 29.75 0.0
18 04:15 S 17 G 26 10.00 Fair CLR 77 77 100% 78 29.74 0.0
18 03:55 S 20 G 28 0.00 NULL NULL 77 77 100% 78 29.74 0.0
18 03:35 S 23 G 29 10.00 Fair and Breezy CLR 77 77 100% 78 29.73 0.0
18 03:15 S 20 G 25 10.00 Fair CLR 77 77 100% 78 29.74 0.0
18 02:55 S 18 G 24 10.00 Fair CLR 77 75.2 94% 78 29.75 0.0
18 02:35 S 13 10.00 Fair CLR 75.2 75.2 100% 73 29.76 0.0
18 02:15 SE 13 10.00 Fair CLR 75.2 75.2 100% 73 29.77 0.0
18 01:55 SE 12 10.00 Fair CLR 75.2 75.2 100% 73 29.78 0.0
18 01:15 SE 10 10.00 Fair CLR 75.2 75.2 100% 73 29.78 0.0
18 00:55 SE 10 10.00 Fair CLR 75.2 75.2 100% 73 29.79 0.0
18 00:35 SE 10 10.00 Fair CLR 77 75.2 94% 78 29.79 0.0
18 00:15 SE 10 10.00 Fair CLR 77 75.2 94% 78 29.8 0.0
17 23:55 SE 9 10.00 Fair CLR 77 75.2 94% 78 29.8 0.0
17 23:35 SE 9 10.00 A Few Clouds FEW180 77 75.2 94% 78 29.81 0.0
17 23:15 SE 9 10.00 Mostly Cloudy BKN170 78.8 73.4 84% 82 29.8 0.0
17 22:55 SE 10 10.00 Mostly Cloudy BKN170 78.8 71.6 79% 82 29.8 0.0
17 22:35 SE 9 10.00 Partly Cloudy SCT170 78.8 73.4 84% 82 29.8 0.0
17 22:15 SE 9 10.00 Fair CLR 78.8 73.4 84% 82 29.79 0.0
17 21:55 SE 8 10.00 Fair CLR 80.6 71.6 74% 85 29.78 0.0
17 21:35 S 9 10.00 Fair CLR 80.6 71.6 74% 85 29.77 0.0
17 21:15 S 12 10.00 Fair CLR 82.4 69.8 66% 86 29.76 0.0
17 20:35 SE 12 10.00 Fair CLR 82.4 69.8 66% 86 29.76 0.0
17 20:15 SE 13 G 22 10.00 Fair CLR 84.2 69.8 62% 88 29.75 0.0
17 19:55 S 14 10.00 Fair CLR 86 69.8 59% 91 29.75 0.0
17 19:35 S 12 10.00 Fair CLR 86 73.4 66% 93 29.75 0.0
17 19:15 S 10 10.00 A Few Clouds FEW060 FEW090 86 73.4 66% 93 29.77 0.0
17 18:55 S 9 10.00 Mostly Cloudy BKN060 BKN075 BKN090 86 73.4 66% 93 29.78 0.0
17 18:35 S 10 10.00 Mostly Cloudy BKN060 BKN070 87.8 73.4 62% 96 29.78 0.0
17 18:15 S 9 10.00 Partly Cloudy SCT060 SCT070 87.8 77 70% 100 29.78 0.0
17 17:55 Calm 10.00 Fair CLR 86 80.6 84% 102 29.77 0.0
17 17:35 Calm 10.00 A Few Clouds FEW065 84.2 80.6 89% 98 29.77 0.0
17 17:15 E 7 10.00 Fair CLR 84.2 80.6 89% 98 29.79 0.0
17 16:55 Calm 9.00 Fair CLR 84.2 80.6 89% 98 29.79 0.0
17 16:35 E 5 10.00 Fair CLR 82.4 80.6 94% 94 29.79 0.0
17 16:15 E 7 9.00 Fair CLR 82.4 80.6 94% 94 29.79 0.0
17 15:55 Vrbl 6 10.00 Fair CLR 80.6 80.6 100% 89 29.79 0.0
17 15:35 Vrbl 3 9.00 Fair CLR 80.6 78.8 94% 88 29.8 0.0
17 15:15 Calm 10.00 Fair CLR 78.8 78.8 100% 83 29.81 0.0
17 14:55 E 7 10.00 Fair CLR 78.8 78.8 100% 83 29.81 0.0
17 14:35 SE 9 10.00 Fair CLR 77 77 100% 78 29.82 0.0
17 14:15 E 10 10.00 A Few Clouds FEW041 77 75.2 94% 78 29.83 0.0
17 13:55 E 9 10.00 Mostly Cloudy BKN042 75.2 75.2 100% 73 29.84 0.0
17 13:35 E 8 10.00 Mostly Cloudy FEW030 BKN042 73.4 73.4 100% 29.84 0.0
17 13:15 NE 12 10.00 Overcast SCT025 BKN030 OVC042 73.4 73.4 100% 29.85 0.0
17 12:55 NE 13 10.00 Overcast SCT020 OVC025 71.6 71.6 100% 29.86 0.0
17 12:35 NE 12 10.00 Overcast OVC020 69.8 69.8 100% 29.88 0.0
17 12:15 NE 10 G 17 10.00 Overcast OVC020 69.8 69.8 100% 29.88 0.0
17 11:55 NE 13 10.00 Overcast OVC018 68 68 100% 29.89 0.0
17 11:35 NE 13 10.00 Overcast OVC018 68 68 100% 29.89 0.0
17 11:15 NE 14 9.00 Overcast OVC020 68 68 100% 29.9 0.0
17 10:55 NE 9 G 16 8.00 Overcast OVC020 68 68 100% 29.89 0.0
17 10:35 NE 16 9.00 Overcast OVC020 68 68 100% 29.88 0.0
17 10:15 N 10 3.00 Fog/Mist OVC021 66.2 66.2 100% 29.88 0.0
17 09:55 N 13 G 18 3.00 Fog/Mist OVC021 66.2 66.2 100% 29.88 0.0
17 09:35 N 16 3.00 Fog/Mist OVC022 68 68 100% 29.88 0.0
17 09:15 NE 12 10.00 Overcast OVC023 69.8 69.8 100% 29.87 0.0
17 08:55 NE 13 10.00 Overcast OVC024 71.6 69.8 94% 29.86 0.0
17 08:35 NE 8 10.00 Overcast OVC024 71.6 69.8 94% 29.86 0.0
17 08:15 NE 7 10.00 Overcast OVC023 69.8 69.8 100% 29.85 0.0
17 07:55 N 10 G 16 10.00 Overcast OVC022 71.6 69.8 94% 29.85 0.0
17 07:35 NW 10 10.00 Overcast BKN021 OVC025 73.4 73.4 100% 29.84 0.0
17 07:15 W 8 G 17 10.00 Overcast SCT021 BKN033 OVC048 75.2 75.2 100% 73 29.83 0.0
17 06:55 SW 8 G 15 10.00 Overcast SCT047 BKN060 OVC095 75.2 75.2 100% 73 29.8 0.0
17 06:35 S 12 10.00 Mostly Cloudy SCT055 BKN095 75.2 75.2 100% 73 29.79 0.0
17 06:15 S 10 10.00 Mostly Cloudy SCT055 BKN065 75.2 75.2 100% 73 29.79 0.0
17 05:55 S 12 10.00 Partly Cloudy SCT065 75.2 75.2 100% 73 29.79 0.0
17 05:35 S 10 10.00 Fair CLR 75.2 73.4 94% 74 29.79 0.0
17 05:15 S 10 10.00 Fair CLR 75.2 75.2 100% 73 29.78 0.0
17 04:55 S 9 10.00 Fair CLR 75.2 75.2 100% 73 29.77 0.0
17 04:35 S 10 10.00 Partly Cloudy FEW055 FEW065 SCT075 75.2 75.2 100% 73 29.77 0.0
17 04:15 S 12 10.00 Mostly Cloudy SCT050 BKN070 BKN075 75.2 75.2 100% 73 29.76 0.0
17 03:55 S 10 10.00 Mostly Cloudy SCT049 BKN070 77 75.2 94% 78 29.77 0.0
17 03:35 S 12 10.00 Mostly Cloudy BKN047 BKN060 77 77 100% 78 29.77 0.0
17 03:15 S 13 10.00 Mostly Cloudy BKN046 BKN060 77 77 100% 78 29.76 0.0
17 02:55 S 13 10.00 Mostly Cloudy SCT043 SCT049 BKN055 77 77 100% 78 29.76 0.0
17 02:35 S 9 10.00 Partly Cloudy SCT060 77 77 100% 78 29.77 0.0
17 02:15 S 8 10.00 Mostly Cloudy BKN060 77 75.2 94% 78 29.77 0.0
17 01:55 S 10 10.00 Partly Cloudy SCT060 77 77 100% 78 29.77 0.0
17 01:35 S 9 10.00 Mostly Cloudy BKN060 77 77 100% 78 29.78 0.0
17 01:15 S 12 10.00 Mostly Cloudy SCT050 BKN060 77 77 100% 78 29.78 0.0
17 00:55 S 8 10.00 Overcast SCT046 OVC055 77 77 100% 78 29.78 0.0
17 00:35 S 7 10.00 Mostly Cloudy SCT045 BKN055 77 77 100% 78 29.79 0.0
17 00:15 S 9 10.00 Overcast SCT048 OVC055 78.8 77 94% 83 29.8 0.0
16 23:55 S 8 10.00 Overcast BKN050 OVC055 77 77 100% 78 29.8 0.0
16 23:35 S 8 10.00 Overcast OVC048 77 77 100% 78 29.8 0.0
16 23:15 S 7 10.00 Mostly Cloudy BKN048 78.8 77 94% 83 29.79 0.0
16 22:55 S 8 10.00 A Few Clouds FEW049 78.8 77 94% 83 29.79 0.0
16 22:35 S 8 10.00 Fair CLR 78.8 77 94% 83 29.78 0.0
16 22:15 S 9 10.00 Fair CLR 78.8 77 94% 83 29.78 0.0
16 21:55 S 10 10.00 Partly Cloudy SCT060 80.6 78.8 94% 88 29.78 0.0
16 21:35 SW 8 10.00 Overcast BKN050 OVC060 82.4 77 84% 91 29.77 0.0
16 21:15 SW 8 10.00 Overcast OVC049 82.4 77 84% 91 29.77 0.0
16 20:55 SW 9 10.00 Overcast OVC048 82.4 75.2 79% 89 29.75 0.0
16 20:35 SW 8 G 17 10.00 Mostly Cloudy BKN048 84.2 75.2 74% 92 29.75 0.0
16 20:15 S 13 10.00 A Few Clouds FEW048 84.2 75.2 74% 92 29.74 0.0
16 19:55 S 14 G 21 10.00 Fair CLR 86 75.2 70% 95 29.73 0.0
16 19:35 S 14 10.00 Fair CLR 86 77 75% 97 29.72 0.0
16 19:15 S 15 G 22 10.00 Fair CLR 87.8 77 70% 100 29.71 0.0
16 18:55 S 17 10.00 Fair CLR 87.8 77 70% 100 29.71 0.0
16 18:35 S 17 G 23 10.00 Fair CLR 87.8 77 70% 100 29.7 0.0
16 18:15 S 17 G 25 10.00 Fair CLR 87.8 77 70% 100 29.7 0.0
16 17:55 S 20 G 25 10.00 A Few Clouds FEW046 87.8 77 70% 100 29.7 0.0
16 17:35 S 16 G 22 10.00 Partly Cloudy SCT046 87.8 77 70% 100 29.7 0.0
16 17:15 SW 15 G 29 10.00 A Few Clouds FEW048 87.8 75.2 66% 98 29.71 0.0
16 16:55 S 18 G 28 10.00 Partly Cloudy SCT047 87.8 75.2 66% 98 29.71 0.0
16 16:35 SW 13 G 22 10.00 Mostly Cloudy BKN045 87.8 75.2 66% 98 29.71 0.0
16 16:15 SW 16 G 25 10.00 Mostly Cloudy BKN045 87.8 75.2 66% 98 29.71 0.0
16 15:55 S 18 10.00 Mostly Cloudy BKN045 87.8 75.2 66% 98 29.71 0.0
16 15:35 S 21 G 28 10.00 Mostly Cloudy and Breezy BKN045 86 75.2 70% 95 29.71 0.0
16 15:15 SW 15 G 25 10.00 Overcast OVC043 86 75.2 70% 95 29.71 0.0
16 14:55 SW 14 G 25 10.00 Mostly Cloudy BKN042 86 75.2 70% 95 29.71 0.0
16 14:35 SW 20 G 26 10.00 Partly Cloudy SCT041 86 75.2 70% 95 29.71 0.0
16 14:15 SW 17 G 28 10.00 Fair CLR 86 75.2 70% 95 29.72 0.0
16 13:55 SW 18 G 31 10.00 Fair CLR 86 75.2 70% 95 29.72 0.0
16 13:35 SW 21 G 32 10.00 Fair and Breezy CLR 84.2 77 79% 94 29.72 0.0
16 13:15 S 22 G 30 10.00 Fair and Breezy CLR 84.2 77 79% 94 29.72 0.0
16 12:55 S 22 10.00 Fair and Breezy CLR 84.2 78.8 84% 96 29.73 0.0
Date Time (cdt) Wind (mph) Vis. (mi.) Weather Sky Cond. Air Dwpt Max. Min. Relative Humidity Wind Chill (°F) Heat Index (°F) altimeter (in) sea level (mb) 1 hr 3 hr 6 hr
6 hour
Temperature (ºF) Pressure Precipitation (in)